This is the latest recevied weather packets stored in our database for station/object N7BTW-13. If no packets are shown the sender has not sent any weather packets the latest 10 day(s).
| Time | Temp. | Humidity | Pressure | Rain* | Wind** | Luminosity | Snow |
|---|---|---|---|---|---|---|---|
| 1777394408 | 11.11° C | 82% | 1024.6 hPa | 0 mm | - | - | - |
| 1777393806 | 11.11° C | 84% | 1024.5 hPa | 0 mm | - | - | - |
| 1777393212 | 11.67° C | 82% | 1024.6 hPa | 0 mm | - | - | - |
| 1777392609 | 11.67° C | 81% | 1024.5 hPa | 0 mm | - | - | - |
| 1777392012 | 11.67° C | 83% | 1024.5 hPa | 0 mm | - | - | - |
| 1777391407 | 11.67° C | 87% | 1024.5 hPa | 0 mm | - | - | - |
| 1777390808 | 11.11° C | 89% | 1024.4 hPa | 0 mm | - | - | - |
| 1777390206 | 10.56° C | 91% | 1024.4 hPa | 0 mm | - | - | - |
| 1777389606 | 10° C | 94% | 1024.4 hPa | 0 mm | - | - | - |
| 1777389007 | 10° C | 94% | 1024.2 hPa | 0 mm | - | - | - |
| 1777388410 | 9.44° C | 95% | 1024.1 hPa | 0 mm | - | - | - |
| 1777387806 | 8.89° C | 96% | 1024.1 hPa | 0 mm | - | - | - |
| 1777387207 | 8.89° C | 96% | 1024 hPa | 0 mm | - | - | - |
| 1777386608 | 8.33° C | 97% | 1023.9 hPa | 0 mm | - | - | - |
| 1777386008 | 8.33° C | 97% | 1023.7 hPa | 0 mm | - | - | - |
| 1777385407 | 8.33° C | 97% | 1023.6 hPa | 0 mm | - | - | - |
| 1777384809 | 7.78° C | 97% | 1023.5 hPa | 0 mm | - | - | - |
| 1777384206 | 7.78° C | 98% | 1023.4 hPa | 0 mm | - | - | - |
| 1777383608 | 7.78° C | 98% | 1023.2 hPa | 0 mm | - | - | - |
| 1777383006 | 7.78° C | 98% | 1023.2 hPa | 0 mm | - | - | - |
| 1777382407 | 7.78° C | 98% | 1023 hPa | 0 mm | - | - | - |
| 1777381806 | 7.78° C | 98% | 1022.9 hPa | 0 mm | - | - | - |
| 1777381209 | 7.78° C | 98% | 1022.9 hPa | 0 mm | - | - | - |
| 1777380606 | 7.78° C | 98% | 1022.9 hPa | 0 mm | - | - | - |
| 1777380008 | 7.78° C | 98% | 1022.8 hPa | 0 mm | - | - | - |
* Rain latest hour (hover to see other rain measurements)
** Current wind speed in m/s (hover to see current wind gust speed)